Home   Weather   Traralgon   Past weeks

Flag for Australia Past Weather in Traralgon, Victoria, Australia — Yesterday and Last 2 Weeks

Now
49 °F

Cool.


Feels Like: 47 °F
Forecast: 42 / 59 °F
Wind: 5 mph from North

Location: Latrobe Valley Airport

Current Time: Sep 26, 2016 at 11:57:23 PM

Latest Report: Sep 26, 2016 at 11:00 PM


Visibility: N/A

Pressure: 29.83 "Hg

Humidity: 91%

Dew Point: 46 °F

Location of TraralgonLocation

Past Weather in Traralgon — Graph

°F

Traralgon Temperature Yesterday

Maximum temperature yesterday: 57 °F (at 3:00 PM)
Minimum temperature yesterday: 44 °F (at 11:00 PM)
Average temperature yesterday: 52 °F

High & Low Weather Summary for the Past Weeks

 TemperatureHumidityPressure
High69 °F (Sep 24, 3:00 PM)97% (Sep 24, 6:00 AM)30.21 "Hg (Sep 24, 6:00 AM)
Low35 °F (Sep 26, 5:00 AM)44% (Sep 20, 2:00 PM)29.62 "Hg (Sep 15, 3:00 AM)
Average52 °F80%29.92 "Hg
* Reported Sep 11 9:00 PM — Sep 26 9:00 PM, Traralgon, Weather by CustomWeather, © 2016

Note: Actual official high and low records may vary slightly from our data, if they occured in-between our weather recording intervals... More about our weather records

Advertising

Traralgon Weather History for the Previous 24 Hours

Scroll right to see more
 ConditionsComfort  
Time TempWeatherWind HumidityBarometerVisibility
9:00 PM
Mon, Sep 26
50 °FOvercast.5 mph81%29.84 "HgN/A
8:00 PM51 °FCool.6 mph79%29.83 "HgN/A
6:00 PM53 °FOvercast.3 mph76%29.82 "HgN/A
5:00 PM56 °FCool.3 mph72%29.82 "HgN/A
3:00 PM53 °FOvercast.17 mph71%29.82 "HgN/A
2:00 PM59 °FRefreshingly cool.8 mph54%29.82 "HgN/A
12:00 PM57 °FScattered clouds.8 mph55%29.87 "HgN/A
11:00 AM55 °FCool.7 mph66%29.90 "HgN/A
9:00 AM48 °FOvercast.No wind80%29.92 "HgN/A
8:00 AM44 °FQuite cool.No wind94%29.93 "HgN/A
6:00 AM36 °FOvercast.No wind95%29.93 "HgN/A
5:00 AM35 °FChilly.2 mph94%29.93 "HgN/A
3:00 AM38 °FPassing clouds.No wind93%29.93 "HgN/A
2:00 AM40 °FChilly.No wind92%29.93 "HgN/A
12:00 AM44 °FOvercast.5 mph83%29.95 "HgN/A
11:00 PM
Sun, Sep 25
44 °FQuite cool.5 mph82%29.95 "HgN/A
Weather by CustomWeather, © 2016

See weather overviewHow to use our weather pages